Regional Weather Roundup
Issued by NWS Boston, MA

Current Version | Previous Version | Text Only | Print | Product List | Glossary Off
Versions: 1 2 3 4 5 6 7 8 9 10 11 12 13 14 15 16 17 18 19 20 21 22 23 24 25 26

000
ASUS41 KBOX 271410
RWRBOX

REGIONAL WEATHER ROUNDUP
NATIONAL WEATHER SERVICE TAUNTON MA
1000 AM EDT THU JUL 27 2017

NOTE:  "FAIR" INDICATES FEW OR NO CLOUDS BELOW 12,000 FEET WITH NO
SIGNIFICANT WEATHER AND/OR OBSTRUCTIONS TO VISIBILITY.

MAZALL-271500-
EASTERN MASSACHUSETTS

CITY           SKY/WX    TMP DP  RH WIND       PRES   REMARKS
BOSTON         CLOUDY    67  59  75 SW12      30.01
BEVERLY        CLOUDY    67  58  72 SW7       29.99F
LAWRENCE       PTSUNNY   69  57  65 S10       30.00F
BEDFORD        CLOUDY    66  58  75 SW6       29.99F
BLUE HILL        N/A     65  57  75 SW14      30.02S
NORWOOD        PTSUNNY   68  61  78 S7        30.01F
MARSHFIELD     CLOUDY    68  59  73 SW9G17    30.01F
PLYMOUTH       PTSUNNY   68  57  68 SW9       30.03F
TAUNTON        CLOUDY    68  58  70 SW8       30.02F
NEW BEDFORD    CLOUDY    69  58  67 SW9       30.02F
$$

MAZALL-271500-
CAPE COD AND THE ISLANDS

CITY           SKY/WX    TMP DP  RH WIND       PRES   REMARKS
FALMOUTH       CLOUDY    68  59  73 SW10      30.05F
HYANNIS        CLOUDY    68  60  75 SW10      30.03F
CHATHAM        CLOUDY    67  59  75 S8        30.05F
PROVINCETOWN   PTSUNNY   68  61  78 S12       30.03F
NANTUCKET      MOSUNNY   64  61  90 S7        30.05F
MARTHAS VNYRD  CLOUDY    70  61  73 S10       30.04F
$$

MAZALL-271500-
CENTRAL AND WESTERN MASSACHUSETTS

CITY           SKY/WX    TMP DP  RH WIND       PRES   REMARKS
WORCESTER      CLOUDY    65  54  67 W16       30.02F
FITCHBURG      CLOUDY    70  55  59 SW7       29.99F
ORANGE         CLOUDY    66  59  78 S9        30.00F
SPRINGFIELD    CLOUDY    67  59  75 S7        30.00F
WESTFIELD      CLOUDY    67  61  81 S6        30.00F
NORTH ADAMS    CLOUDY    66  59  78 E5        30.00F
PITTSFIELD     LGT RAIN  64  60  87 SW6       30.01F
$$

RIZALL-271500-
RHODE ISLAND

CITY           SKY/WX    TMP DP  RH WIND       PRES   REMARKS
PROVIDENCE     CLOUDY    71  61  70 SW9       30.03F
NEWPORT        CLOUDY    69  62  78 SW5       30.03F
BLOCK ISLAND   MOSUNNY   70  61  73 SW10      30.05F
WESTERLY       MOSUNNY   72  62  71 SW12      30.05F
$$

CTZALL-271500-
CONNECTICUT

CITY           SKY/WX    TMP DP  RH WIND       PRES   REMARKS
BRADLEY INTL   CLOUDY    69  61  75 S9        30.01F
HARTFORD       CLOUDY   N/A N/A N/A MISG      30.02F
BRIDGEPORT     CLOUDY    71  62  73 SW8       30.03F
DANBURY        CLOUDY    69  63  81 W10       30.04F
GROTON         MOSUNNY   70  62  76 SW13      30.03F
NEW HAVEN      CLOUDY    70  63  78 SW7       30.04F
CHESTER        FAIR      70  61  73 VRB3      30.04F
MERIDEN        CLOUDY    68  60  75 S7        30.03F
WILLIMANTIC    CLOUDY    70  60  70 SW6       30.03F
OXFORD         CLOUDY    68  59  73 W7        30.05F
$$

MEZ002-015-021-024-NHZ003-005-008-011-012-014-VTZ005-008-271500-
NORTHERN NEW ENGLAND

CITY           SKY/WX    TMP DP  RH WIND       PRES   REMARKS
PORTLAND ME    CLOUDY    65  59  81 S6        29.96F
BANGOR ME      CLOUDY    65  62  90 S8        29.94F
CONCORD NH     CLOUDY    66  59  78 S5        29.96F
MANCHESTER NH  CLOUDY    67  55  65 S7        29.96F
NASHUA NH      CLOUDY    67  58  72 VRB5      29.98F
PORTSMOUTH NH  CLOUDY    68  56  65 S8        29.96F
JAFFREY NH     CLOUDY    65  57  75 S8        30.02F
KEENE NH       CLOUDY    64  58  80 VRB3      29.99F
BURLINGTON VT  CLOUDY    68  61  78 S12G23    29.89F
MT. WASHINGTON DRZL/FOG  48  48 100 W38         N/A  VSB 0
$$

NYZ052-076-271500-
EASTERN NEW YORK

CITY           SKY/WX    TMP DP  RH WIND       PRES   REMARKS
ALBANY         LGT RAIN  66  61  84 S9        29.99R
NEW YORK CITY  CLOUDY    75  62  64 W13       30.02F
$$

ANZALL-271500-
MARINE OBSERVATIONS

STATION/POSITION TIME  TEMP    WIND        PRES    VSBY  WAVE
                       AIR SEA DIR/SP/G                  HT/PER
                 (UTC) (F)     (DEG/KT/KT) (MB)    (MI)  (FT/S)
BOSTON BUOY      1350   64 63  190/  8/ 10 1016.2F         2/ 8
BUZZARDS BAY     1300   65     210/  7/  8 1018.1F
NANTUCKET SOUND  1350      66              1017.4F         1
MASS BAY-STELLWA 1304   63 63  200/ 10/ 12 1016.0F         2/ 8
ISLE OF SHOALS   1300   64     210/ 17/ 19 1015.0F
S OF BLOCK IS    NOT AVBL
$$

......................KEY.........................
  SKY/WX - SKY CONDITION/PRESENT WEATHER
  TMP    - TEMPERATURE IN FAHRENHEIT
  DWPT   - DEWPOINT IN FAHRENHEIT
  RH     - RELATIVE HUMIDITY IN PERCENT
  WIND   - DIRECTION AND SPEED IN MPH
  PRES   - MEAN SEA LEVEL PRESSURE IN INCHES OF HG
  WCI    - WIND CHILL INDEX
  VSB    - VISIBILITY IN MILES
  HX     - HEAT INDEX
  TC     - TEMPERATURE IN CELSIUS
  VRB    - VARIABLE WIND DIRECTION
  N/A    - NOT AVAILABLE




USA.gov is the U.S. government's official web portal to all federal, state and local government web resources and services.